This is the latest recevied weather packets stored in our database for station/object RV1CJ-14. If no packets are shown the sender has not sent any weather packets the latest 10 day(s).
| Time | Temp. | Humidity | Pressure | Rain* | Wind** | Luminosity | Snow |
|---|---|---|---|---|---|---|---|
| 1777670403 | 10° C | 75% | 1011.9 hPa | 0 mm | - | 0 W/m² | - |
| 1777669803 | 10° C | 75% | 1012 hPa | 0 mm | - | 0 W/m² | - |
| 1777669203 | 10.56° C | 76% | 1012 hPa | 0 mm | - | 0 W/m² | - |
| 1777668603 | 10° C | 76% | 1012 hPa | 0 mm | - | 0 W/m² | - |
| 1777668003 | 10° C | 77% | 1012.1 hPa | 0 mm | - | 0 W/m² | - |
| 1777667403 | 10° C | 78% | 1012.3 hPa | 0 mm | - | 0 W/m² | - |
| 1777666803 | 9.44° C | 78% | 1012.3 hPa | 0 mm | - | 0 W/m² | - |
| 1777666203 | 9.44° C | 78% | 1012.3 hPa | 0 mm | - | 0 W/m² | - |
| 1777665603 | 9.44° C | 78% | 1012.4 hPa | 0 mm | - | 0 W/m² | - |
| 1777665003 | 9.44° C | 78% | 1012.4 hPa | 0 mm | - | 0 W/m² | - |
| 1777664403 | 9.44° C | 77% | 1012.6 hPa | 0 mm | - | 0 W/m² | - |
| 1777663803 | 9.44° C | 77% | 1012.7 hPa | 0 mm | - | 0 W/m² | - |
| 1777663203 | 10° C | 77% | 1012.8 hPa | 0 mm | - | 0 W/m² | - |
| 1777662603 | 10° C | 77% | 1012.8 hPa | 0 mm | - | 0 W/m² | - |
| 1777662003 | 10° C | 76% | 1012.8 hPa | 0 mm | - | 0 W/m² | - |
| 1777660803 | 10° C | 75% | 1012.9 hPa | 0 mm | - | 0 W/m² | - |
| 1777660203 | 10.56° C | 74% | 1013 hPa | 0 mm | - | 0 W/m² | - |
| 1777659603 | 10.56° C | 74% | 1013 hPa | 0 mm | - | 0 W/m² | - |
| 1777659003 | 11.11° C | 73% | 1013 hPa | 0 mm | - | 0 W/m² | - |
| 1777658403 | 11.11° C | 72% | 1013 hPa | 0 mm | - | 0 W/m² | - |
| 1777657803 | 11.67° C | 72% | 1012.9 hPa | 0 mm | - | 0 W/m² | - |
| 1777657203 | 12.22° C | 71% | 1012.9 hPa | 0 mm | - | 5 W/m² | - |
| 1777656603 | 12.22° C | 70% | 1012.9 hPa | 0 mm | - | 7 W/m² | - |
| 1777656003 | 12.22° C | 70% | 1012.9 hPa | 0 mm | - | 11 W/m² | - |
| 1777655403 | 12.78° C | 70% | 1012.9 hPa | 0 mm | - | 12 W/m² | - |
* Rain latest hour (hover to see other rain measurements)
** Current wind speed in m/s (hover to see current wind gust speed)